EHI
7 7 7 5 2 1 0 0 0 0 0 1 2 2 1 0 0 0 0 0 0 0 0 0 0 0 0 0 0 2 4 6 6 4 2 1 0 1 0 0 0 1 1
8 7 7 4 1 0 0 0 0 0 0 0 1 2 1 0 0 0 0 0 0 0 0 0 0 0 0 1 1 3 5 6 5 2 1 0 0 1 1 0 0 1 2
8 6 5 3 1 0 0 0 0 0 0 0 0 1 1 0 0 0 0 0 0 0 0 0 0 0 0 1 2 4 5 5 3 1 0 0 1 1 2 2 1 1 1
7 6 5 4 2 0 0 0 0 0 0 0 0 0 0 0 0 0 0 0 0 0 0 0 0 0 1 2 3 3 3 2 1 1 1 1 1 2 4 4 2 1 0
6 5 7 6 3 0 0 1 1 1 1 1 1 0 0 0 0 0 0 0 0 1 1 1 0 1 2 3 3 3 2 1 0 1 1 1 1 4 6 5 4 2 1
5 6 7 7 3 1 1 2 2 2 2 2 2 1 1 0 0 1 1 1 1 2 2 2 1 2 2 3 3 2 1 1 1 1 1 1 3 7 8 7 6 4 3
5 5 6 6 4 2 3 3 4 4 3 3 3 3 2 1 0 1 1 2 3 3 3 3 2 1 1 2 3 2 1 2 2 1 1 3 6 9 11 10 7 5 5
4 3 4 5 4 4 5 6 6 5 4 4 4 4 3 2 2 3 3 4 4 3 3 3 3 2 3 3 4 3 3 3 3 1 2 5 9 12 14 12 9 7 6
2 2 3 3 3 4 5 6 6 5 5 5 5 5 5 4 4 5 6 6 6 5 5 5 5 6 7 8 7 6 6 5 2 0 2 7 12 14 14 13 10 8 7
2 2 2 2 2 1 2 4 4 3 3 3 4 6 7 6 5 6 7 9 10 10 9 8 8 10 12 14 13 10 8 7 4 2 4 10 14 15 14 13 11 9 8
3 2 2 1 1 0 1 2 2 1 1 2 4 7 9 7 5 5 8 13 17 17 16 14 14 15 15 15 16 14 11 9 7 6 10 15 17 17 15 14 12 10 9
4 4 4 3 2 1 1 1 1 2 2 3 4 7 10 8 5 4 8 16 21 21 20 19 19 17 14 13 14 14 11 9 9 10 14 18 19 18 18 17 14 11 10
4 5 6 6 5 3 2 2 4 5 5 5 6 8 8 7 4 3 8 16 20 19 19 18 17 15 11 9 9 8 8 7 7 9 14 19 20 19 19 17 15 12 11
6 7 9 10 10 8 5 5 6 7 7 8 9 9 7 6 4 4 7 13 15 16 17 15 13 11 8 7 6 5 4 5 5 7 14 21 22 18 15 14 14 12 11
8 10 12 13 14 12 10 7 6 7 8 8 11 12 9 6 6 6 7 10 12 14 15 12 9 7 7 6 5 4 4 4 5 7 13 20 21 15 12 12 12 11 9
11 12 14 15 16 15 11 7 5 6 7 9 12 15 12 9 9 10 9 9 10 12 12 10 7 6 7 6 5 5 5 6 7 9 11 16 18 14 12 11 10 9 8
14 15 14 15 17 16 11 7 5 5 6 8 11 14 14 12 12 12 9 9 11 11 11 11 10 9 8 7 6 6 8 9 9 10 11 14 15 14 12 11 9 8 7
22 22 16 14 16 16 13 10 6 5 6 8 10 12 14 13 13 11 8 9 12 12 11 12 12 11 9 8 8 9 10 11 9 8 10 13 15 13 13 14 13 11 10
32 30 24 17 18 18 16 14 10 7 8 10 12 12 12 12 12 12 9 9 13 13 11 10 12 14 13 10 9 9 10 10 8 6 7 12 15 16 15 17 19 16 14
37 38 33 26 23 22 20 17 15 12 12 13 15 16 14 11 12 13 10 11 14 13 11 10 12 17 18 14 10 8 8 9 11 11 10 12 17 19 18 19 20 19 16
41 42 40 34 30 28 26 24 22 19 17 16 18 20 20 16 14 13 12 14 16 15 13 12 14 17 18 15 11 8 7 10 14 17 17 16 16 17 18 19 20 20 19
44 44 43 39 36 35 33 29 26 24 21 19 20 23 24 22 17 15 16 16 16 16 15 15 16 16 15 14 11 8 6 7 11 15 19 17 13 13 14 16 20 22 22
42 44 45 44 42 40 39 33 28 28 27 23 22 25 27 25 21 18 18 17 15 16 16 17 19 19 16 14 12 9 7 7 8 10 13 13 13 13 11 11 15 21 25
36 42 49 50 46 44 41 34 29 28 28 25 24 26 28 28 25 20 19 18 17 17 18 19 19 19 17 14 13 12 11 11 10 9 8 9 11 13 11 9 11 18 23
30 39 50 53 50 45 41 35 30 27 27 25 25 27 29 29 27 23 22 22 22 21 21 21 19 18 17 14 12 11 12 13 12 9 7 7 10 11 10 10 12 16 20
26 36 48 53 52 47 42 36 31 28 27 26 26 28 29 29 28 26 24 24 25 23 22 21 20 19 16 12 10 9 10 12 12 9 6 7 9 9 10 12 13 16 19
Wind_Speed
10 11 11 10 10 9 9 10 10 10 9 9 9 9 9 8 8 8 8 9 9 8 7 7 7 7 6 6 5 5 6 7 7 8 7 7 6 5 4 4 4 4 6
13 12 12 11 10 10 10 10 10 9 9 9 9 8 8 7 8 8 8 8 8 8 7 7 6 6 6 5 5 5 6 6 7 7 8 7 6 5 4 3 3 4 6
14 12 12 11 10 10 10 9 9 9 8 8 8 8 7 7 8 8 8 8 8 7 7 6 6 6 6 5 5 5 6 6 6 7 8 6 6 7 6 5 6 6 5
14 12 11 11 10 10 9 9 8 9 8 8 8 7 7 7 7 8 8 8 7 7 6 6 6 6 6 5 5 5 5 5 6 7 6 5 5 8 8 7 7 6 6
14 13 12 12 11 10 9 8 8 8 8 8 7 6 7 7 7 7 7 7 6 6 5 5 6 6 5 5 5 5 5 6 7 7 4 3 3 7 9 8 8 8 7
14 14 13 12 11 10 9 8 8 7 7 7 6 6 6 7 7 7 6 6 5 5 5 5 5 5 5 5 5 6 6 7 8 5 3 3 4 7 9 9 9 8 8
13 13 13 12 11 10 9 8 7 7 6 6 6 5 6 6 6 6 5 5 5 5 5 5 4 4 4 5 5 6 7 9 7 4 2 2 4 7 8 8 9 8 8
13 13 13 13 11 10 9 8 7 6 6 6 5 5 5 5 6 6 5 5 5 5 5 4 4 4 4 5 5 6 7 9 6 3 3 3 6 7 8 9 9 8 8
11 12 11 10 10 10 9 8 8 7 6 5 5 4 4 5 6 6 6 6 6 6 6 5 5 5 5 6 6 7 8 9 6 2 2 2 6 7 8 9 9 8 9
9 10 10 9 9 8 8 8 8 8 6 5 4 4 5 5 6 6 7 7 7 7 7 6 6 7 7 8 8 9 9 8 6 3 1 3 6 7 7 9 8 8 8
7 7 7 8 8 7 8 9 9 8 6 5 4 5 5 4 5 6 7 8 8 8 8 8 9 9 9 9 10 11 9 5 3 2 2 5 8 8 8 9 9 9 8
6 6 5 6 5 5 5 6 5 5 5 4 3 3 2 2 2 3 6 9 9 9 9 10 11 10 9 5 8 10 5 5 2 2 3 7 8 8 9 9 9 9 9
5 5 6 5 4 3 3 4 3 3 3 4 3 2 1 0 1 2 2 5 6 7 6 6 7 6 5 4 3 3 4 3 1 1 3 7 8 8 9 9 9 9 9
5 6 5 6 4 3 3 2 3 2 2 2 3 2 2 1 0 1 1 1 2 2 3 3 2 4 4 4 3 3 2 2 1 1 3 7 8 8 8 8 8 8 8
5 6 6 5 4 3 2 0 1 2 2 3 2 2 1 1 1 1 0 1 1 1 2 1 1 2 2 2 2 2 2 2 2 2 2 7 8 8 8 9 9 8 8
6 6 6 6 5 3 2 1 0 1 2 2 2 2 1 1 1 1 1 1 1 0 1 0 1 1 1 1 1 2 2 2 2 2 2 5 8 9 9 9 9 8 8
7 6 5 6 6 4 2 1 1 1 2 2 2 2 2 1 1 1 1 1 1 1 1 1 1 1 1 2 2 3 2 2 2 2 2 2 4 8 10 10 9 9 9
7 6 4 4 6 5 2 1 0 0 1 1 1 2 2 1 1 1 1 0 1 1 1 1 1 1 1 1 2 3 2 2 3 3 3 3 3 3 7 11 10 10 9
6 6 4 3 5 4 3 3 2 1 1 1 1 1 1 1 1 1 0 0 1 1 1 1 1 1 2 2 3 3 3 3 3 3 3 3 3 4 4 8 11 10 10
7 6 5 4 3 3 2 2 1 1 1 1 1 1 1 1 1 1 1 1 1 1 0 0 1 2 2 2 3 2 3 3 3 3 3 2 2 3 3 4 5 7 9
7 6 5 4 3 2 2 2 2 1 1 1 1 2 1 0 1 0 1 1 1 1 0 1 1 2 2 1 2 2 2 2 3 2 2 2 2 2 2 3 3 2 3
7 6 5 5 4 3 2 2 1 1 1 1 1 2 1 1 0 1 1 1 1 1 1 1 1 2 2 1 1 1 1 1 1 2 2 2 2 2 2 2 2 2 2
8 7 5 5 4 3 3 2 1 1 0 0 1 1 1 1 1 1 0 1 1 1 1 1 2 2 2 2 1 1 1 1 2 1 1 1 2 1 1 1 2 3 3
8 8 6 6 4 3 3 2 2 2 1 1 1 1 2 1 1 1 0 1 2 1 1 2 1 2 2 2 1 1 1 1 1 2 2 1 1 1 1 1 1 2 2
9 9 7 6 5 4 3 2 1 1 1 1 1 1 2 2 1 1 1 1 1 1 1 2 2 2 2 2 2 1 1 1 2 1 2 2 1 1 1 1 1 1 2
8 8 8 7 5 4 3 2 2 1 1 1 1 1 1 1 1 1 1 1 1 1 1 1 2 2 1 2 2 2 2 1 1 1 2 3 2 1 1 1 1 1 1
Wind_Direction
103 106 108 102 99 95 95 97 97 99 101 101 101 102 107 111 113 116 119 123 125 127 130 132 132 133 133 132 131 135 131 128 135 138 138 136 134 136 142 154 171 133 123
106 107 108 105 103 101 100 99 100 102 105 106 105 105 107 113 117 121 123 124 127 129 131 134 138 137 142 142 140 151 152 149 156 157 157 152 155 161 164 165 157 132 140
108 110 109 107 108 106 103 102 103 105 106 107 109 112 113 118 122 125 127 128 129 131 132 137 146 146 148 152 156 165 167 170 179 182 187 178 165 174 176 164 156 158 154
112 112 109 111 111 109 107 106 105 107 109 110 111 110 111 117 120 124 126 126 130 134 137 146 153 154 154 161 170 178 187 201 211 215 213 202 173 175 181 177 171 170 171
110 109 112 116 116 112 109 107 105 108 110 112 113 113 112 118 124 126 129 130 133 138 142 148 152 156 161 174 183 197 214 228 237 241 237 195 170 178 181 180 179 181 183
113 113 118 121 121 118 114 110 108 109 110 112 112 117 119 122 127 131 133 135 140 146 148 151 155 157 168 187 201 212 226 240 250 244 226 184 164 179 182 183 183 188 190
113 115 122 125 125 124 121 118 115 113 111 111 113 116 123 132 138 139 143 143 147 149 151 157 162 168 183 201 218 228 238 252 249 246 191 156 162 177 183 187 190 195 199
113 117 125 130 131 131 130 128 125 123 123 123 120 120 128 140 148 151 157 157 158 164 167 175 182 188 200 211 224 237 250 261 251 236 186 160 167 172 177 185 192 198 202
113 120 129 136 138 140 140 141 139 140 140 138 138 141 143 149 156 164 168 174 178 182 184 192 198 206 212 222 235 241 249 258 268 264 219 153 162 175 180 186 194 201 207
112 118 131 138 144 150 149 155 154 152 153 152 156 166 174 175 172 176 177 183 189 194 198 205 210 216 224 231 240 246 251 259 253 238 195 163 167 184 194 193 199 203 209
101 112 126 134 149 151 147 153 167 163 164 168 178 193 198 200 188 185 178 182 195 201 207 214 218 222 227 234 239 244 252 247 231 213 193 177 181 189 195 195 199 202 210
112 120 113 120 131 140 136 140 160 160 156 177 166 181 198 195 188 176 167 187 199 206 215 220 225 227 229 230 230 234 240 239 224 204 179 178 184 192 194 195 200 207 213
122 112 112 108 107 113 118 137 139 147 150 162 154 177 171 185 175 168 174 184 198 207 217 215 220 228 223 225 229 217 227 241 214 194 171 177 184 191 194 195 202 212 217
127 117 110 108 101 85 86 108 141 145 147 143 147 177 149 159 169 149 199 195 186 196 200 211 212 218 221 222 229 240 238 245 236 173 173 179 187 194 197 201 206 213 220
130 121 111 109 103 96 85 333 117 122 127 128 135 143 163 152 126 134 247 281 244 192 183 215 228 217 220 224 233 235 250 252 259 229 173 184 189 197 204 207 212 218 225
141 132 128 126 117 109 118 128 45 126 127 121 130 130 149 141 125 161 198 254 272 212 177 235 251 220 212 218 245 259 249 236 250 251 185 183 193 198 203 209 215 221 229
140 132 134 138 136 138 150 204 158 166 125 132 134 136 142 146 125 220 205 226 271 248 184 176 256 241 224 223 227 240 232 212 226 225 221 198 197 204 204 207 212 217 225
138 138 151 150 139 144 156 164 88 83 119 138 148 142 147 161 184 236 213 218 272 269 232 198 199 259 261 242 235 238 220 202 208 221 223 214 197 195 202 206 210 213 219
132 130 134 122 131 143 160 167 188 163 141 146 134 130 153 178 189 242 242 342 280 268 274 287 80 256 263 257 256 229 219 204 204 217 227 214 193 192 191 200 209 213 217
133 131 134 132 130 142 157 172 193 178 160 167 151 142 136 184 195 289 253 292 297 314 330 354 314 266 253 257 276 269 230 205 198 205 224 217 194 193 192 192 196 210 211
138 137 140 147 146 150 164 175 178 179 182 188 161 137 140 151 123 202 303 290 269 284 308 317 312 292 276 267 293 298 258 218 200 187 202 206 181 181 182 176 169 181 189
143 146 151 157 158 172 168 176 190 170 184 171 123 121 135 127 323 196 232 282 292 289 309 296 296 295 297 305 302 310 308 299 298 216 182 195 186 184 187 161 158 174 188
149 153 156 154 158 167 161 176 182 146 210 115 124 126 148 153 163 303 96 313 310 282 284 285 297 297 297 299 332 342 316 317 317 283 232 197 170 179 192 180 184 179 186
156 156 148 144 147 147 161 179 167 160 183 194 156 158 157 156 161 226 168 315 306 320 316 291 328 302 289 291 291 247 242 289 289 302 296 279 215 198 207 233 201 184 181
158 154 150 143 144 147 158 167 188 188 209 204 164 166 166 167 182 229 178 232 270 290 300 327 322 307 297 303 302 302 303 278 261 268 293 294 290 244 211 206 207 187 195
148 145 144 142 146 153 165 169 176 205 229 238 202 192 208 184 170 188 187 216 252 279 289 295 293 291 308 320 313 303 296 297 296 279 281 289 286 274 247 223 219 217 188